Weather History for West Palm Beach, FL

Change the Weather History Date:

Friday, January 18, 2013

  Actual Average Record
Temperature  
Mean Temperature 62 °F 66 °F  
Max Temperature 73 °F 75 °F 87 °F (1960)
Min Temperature 51 °F 57 °F 32 °F (1965)
Degree Days  
Heating Degree Days 3 3  
Month to date heating degree days 3 54  
Since 1 July heating degree days 46 125  
Cooling Degree Days 0 3  
Month to date cooling degree days 156 61  
Year to date cooling degree days 156 61  
Growing Degree Days 12 (Base 50)    
Moisture  
Dew Point 50 °F    
Average Humidity 63    
Maximum Humidity 77    
Minimum Humidity 49    
Precipitation  
Precipitation 0.00 in 0.09 in 1.65 in (1941)
Month to date precipitation 0.53 1.90  
Year to date precipitation 0.53 1.90  
Snow  
Snow 0.00 in - - ()
Month to date snowfall 0.0  
Since 1 July snowfall 0.0  
Snow Depth 0.00 in    
Sea Level Pressure  
Sea Level Pressure 30.17 in    
Wind  
Wind Speed 12 mph (North)    
Max Wind Speed 18 mph    
Max Gust Speed 22 mph    
Visibility 10 miles    
Events      
T = Trace of Precipitation, MM = Missing Value Source: NWS Daily Summary

Daily Weather History Graph

Daily Weather History Graph

Search for Another Location

Airport:

Trip Planner

Search our weather history database for the weather conditions in past years. The results will help you decide how hot, cold, wet, or windy it might be!

Date:

Astronomy

Jan. 18, 2013 Rise Set
Actual Time 7:10 AM EST 5:52 PM EST
Civil Twilight 6:45 AM EST 6:16 PM EST
Nautical Twilight 6:16 AM EST 6:45 PM EST
Astronomical Twilight 5:49 AM EST 7:13 PM EST
Moon 11:33 AM EST (1/18) No Moon Set
Length of Visible Light 11h 31m
Length of Day
10h 42m
Waxing Crescent, 47% of the Moon is Illuminated
Jan 18
Waxing Crescent
Jan 18
First Quarter
Jan 26
Full
Feb 3
Last Quarter
Feb 10
New

Hourly Weather History & Observations

Time (EST) Temp. Dew Point Humidity Pressure Visibility Wind Dir Wind Speed Gust Speed Precip Events Conditions
12:53 AM 60.1 °F 50.0 °F 69% 30.10 in 10.0 mi WNW 12.7 mph - N/A   Partly Cloudy
1:53 AM 59.0 °F 50.0 °F 72% 30.10 in 10.0 mi WNW 10.4 mph - N/A   Scattered Clouds
2:53 AM 57.0 °F 48.0 °F 72% 30.11 in 10.0 mi NW 10.4 mph - N/A   Partly Cloudy
3:53 AM 55.9 °F 46.9 °F 72% 30.12 in 10.0 mi NW 12.7 mph - N/A   Partly Cloudy
4:53 AM 54.0 °F 45.0 °F 72% 30.14 in 10.0 mi NNW 11.5 mph - N/A   Partly Cloudy
5:53 AM 52.0 °F 45.0 °F 77% 30.16 in 10.0 mi NNW 11.5 mph 21.9 mph N/A   Scattered Clouds
6:40 AM 51.8 °F 44.6 °F 76% 30.17 in 10.0 mi WNW 12.7 mph - N/A   Mostly Cloudy
6:53 AM 52.0 °F 45.0 °F 77% 30.18 in 10.0 mi NW 13.8 mph - N/A   Mostly Cloudy
7:53 AM 52.0 °F 45.0 °F 77% 30.20 in 10.0 mi NW 11.5 mph - N/A   Mostly Cloudy
8:06 AM 53.6 °F 44.6 °F 72% 30.20 in 10.0 mi NW 12.7 mph - N/A   Scattered Clouds
8:53 AM 54.0 °F 44.1 °F 69% 30.22 in 10.0 mi WNW 11.5 mph - N/A   Scattered Clouds
9:53 AM 55.9 °F 45.0 °F 67% 30.23 in 10.0 mi NW 10.4 mph - N/A   Scattered Clouds
10:53 AM 61.0 °F 48.0 °F 62% 30.23 in 10.0 mi NW 11.5 mph - N/A   Scattered Clouds
11:53 AM 64.0 °F 51.1 °F 63% 30.21 in 10.0 mi North 6.9 mph - N/A   Scattered Clouds
12:53 PM 66.9 °F 52.0 °F 59% 30.18 in 10.0 mi North 8.1 mph - N/A   Mostly Cloudy
1:53 PM 70.0 °F 53.1 °F 55% 30.16 in 10.0 mi NNE 8.1 mph - N/A   Mostly Cloudy
2:53 PM 72.0 °F 55.9 °F 57% 30.15 in 10.0 mi NNE 15.0 mph - N/A   Mostly Cloudy
3:53 PM 72.0 °F 55.9 °F 57% 30.15 in 10.0 mi NE 11.5 mph - N/A   Scattered Clouds
4:53 PM 72.0 °F 52.0 °F 49% 30.16 in 10.0 mi NE 13.8 mph - N/A   Mostly Cloudy
5:53 PM 70.0 °F 53.1 °F 55% 30.18 in 10.0 mi NE 11.5 mph - N/A   Mostly Cloudy
6:53 PM 71.1 °F 54.0 °F 55% 30.19 in 10.0 mi ENE 12.7 mph - N/A   Scattered Clouds
7:53 PM 71.1 °F 55.0 °F 57% 30.20 in 10.0 mi NE 12.7 mph - N/A   Scattered Clouds
8:53 PM 71.1 °F 53.1 °F 53% 30.19 in 10.0 mi ENE 13.8 mph 20.7 mph N/A   Scattered Clouds
9:53 PM 70.0 °F 54.0 °F 57% 30.20 in 10.0 mi ENE 10.4 mph - N/A   Scattered Clouds
10:53 PM 70.0 °F 55.0 °F 59% 30.19 in 10.0 mi East 11.5 mph - N/A   Partly Cloudy
11:53 PM 70.0 °F 55.9 °F 61% 30.18 in 10.0 mi East 11.5 mph - N/A   Partly Cloudy